RUZAEVKA 390 (RS44S)

Last updated on Fri Dec 19 2025 00:03:12 GMT+0000 (Coordinated Universal Time)

1 61766U 24199AH 25352.64307964 .00080292 00000+0 88531-3 0 9995 2 61766 97.3171 225.4597 0004891 161.9312 198.2122 15.62830657106741
UTC large
Height (km)
Speed (km/s)
/
Latitude / Longitude
Inclination (degrees)
Orbital Period (minutes)
Azimuth
Elevation
Range (km)
Doppler Factor

Next 0 passes for location: London (51.5072 / 0.1276)

Sorry there are no passes over London.